CZ-3B DEB, 40850

Orbit data source: Space-Track

CZ-3B DEB, 40850 is space debris in HEO originally from a launch on Mon, 19 Dec 2011 UTC launched from the Xichang Space Center, China (XSC). Debris objects in space refer to the collection of defunct objects orbiting the Earth. Examples of debris include non-operational satellites, rocket bodies, and fragments generated from explosions, collisions, or faulty payload assembly.

Loading next visibility...
Identifier
40850, 2011-077AF
Orbit
HEO
Country
Flag of CNCN / PRC
Related business
Manufacturer
CALT
Mission
Spacecraft
Bus & Motor
Unknown
Mass
Unknown
Launch date (UTC)
2011-12-19 (14 years ago)
Launch vehicle
Unknown
Launch site
Xichang Space Center, China (XSC)
Object type
Payload
Rocket body
Debris
Shape & HBR
Unknown shape, 0.1 m
Radar Cross Section
Medium (>0.1 m² and <1 m²)

Expand to show TLE details & history
Last TLE update: 4 days ago

TLE from 4 days ago
0 CZ-3B DEB
1 40850U 11077AF  26030.88857031  .00000215  00000-0  23999-2 0  9996
2 40850  25.3495 282.1496 7481472 190.7876 131.9803  1.92951817 76641
Epoch: 2026-01-30T21:19Z
TLE epoch observation values (Epoch: 2026-01-30T21:19:32.474Z)
Latitude
0.00007°
Longitude
-167.82625°
Altitude
38,911.457 km
Speed
1.725 km/s
True Right ascension
18h 48m 43s
True Declination
0° 00' 00"
Sunlit
Object was in daylight at epoch
Visualization orbit readout
Latitude
Unknown
Longitude
Unknown
Altitude
Unknown
Speed
Unknown
Apparent Right ascension
Unknown
Apparent Declination
Unknown
Sunlit
N/A
Visualization observer readout
Local Sidereal Time
20:15:01
Azimuth
Unknown
Elevation
Unknown
Doppler factor
Unknown
Orbital elements
Apogee altitude
41,273.53 km
Perigee altitude
486.963 km
Semi-major axis
27,258.384 km
Eccentricity
0.74815
Inclination
25.3495°
RAAN
282.1496°
Arg. of periapsis
190.7876°
True anomaly
169.21288°
Mean anomaly
131.9803°
Eccentric anomaly
152.06293°
Mean motion
0.48227 °/min
Orbital period
746.47 mins
BSTAR
0.0023999
Loading maneuver chart data...
Computing Atmospheric mass density...
Loading historical data...
Loading historical data...
Loading historical data...
Loading historical data...
Loading historical data...
Loading historical data...
Loading historical data...

Documentation

Showing up to 5 results
|